This is the latest recevied weather packets stored in our database for station/object OK1KZE-6. If no packets are shown the sender has not sent any weather packets the latest 10 day(s).
| Time | Temp. | Humidity | Pressure | Rain* | Wind** | Luminosity | Snow |
|---|---|---|---|---|---|---|---|
| 1777877107 | 13.33° C | 65% | 1016 hPa | - | - | - | - |
| 1777876807 | 13.33° C | 63% | 1016.1 hPa | - | - | - | - |
| 1777876207 | 12.78° C | 67% | 1016.2 hPa | - | - | - | - |
| 1777875909 | 12.22° C | 69% | 1016.1 hPa | - | - | - | - |
| 1777875608 | 11.67° C | 71% | 1015.9 hPa | - | - | - | - |
| 1777875308 | 11.11° C | 73% | 1016 hPa | - | - | - | - |
| 1777875008 | 11.11° C | 72% | 1016.1 hPa | - | - | - | - |
| 1777874708 | 11.11° C | 72% | 1016 hPa | - | - | - | - |
| 1777874409 | 10.56° C | 74% | 1015.9 hPa | - | - | - | - |
| 1777874108 | 11.11° C | 73% | 1015.9 hPa | - | - | - | - |
| 1777873808 | 11.67° C | 72% | 1015.5 hPa | - | - | - | - |
| 1777873507 | 11.67° C | 70% | 1015.5 hPa | - | - | - | - |
| 1777873207 | 11.11° C | 71% | 1015.5 hPa | - | - | - | - |
| 1777872908 | 11.67° C | 69% | 1015.7 hPa | - | - | - | - |
| 1777872608 | 12.22° C | 66% | 1015.3 hPa | - | - | - | - |
| 1777872307 | 11.11° C | 70% | 1015.4 hPa | - | - | - | - |
| 1777872007 | 12.22° C | 67% | 1015.2 hPa | - | - | - | - |
| 1777871706 | 12.22° C | 65% | 1015.3 hPa | - | - | - | - |
| 1777871408 | 12.22° C | 65% | 1015.1 hPa | - | - | - | - |
| 1777871108 | 12.22° C | 65% | 1015.3 hPa | - | - | - | - |
| 1777870808 | 11.67° C | 66% | 1015.2 hPa | - | - | - | - |
| 1777870507 | 11.67° C | 66% | 1015.1 hPa | - | - | - | - |
| 1777870208 | 11.67° C | 67% | 1015.3 hPa | - | - | - | - |
| 1777869908 | 11.67° C | 67% | 1015.1 hPa | - | - | - | - |
| 1777869608 | 11.67° C | 66% | 1015.1 hPa | - | - | - | - |
* Rain since midnight (hover to see other rain measurements)
** Current wind speed in m/s (hover to see current wind gust speed)